Lid_Strength_Index
0 0 0 0 0 -0 -0 -0 -0 -0 -0 -0 -0 -0 -0 -0 0 2 6 3 2 -2 0 5 6 6 6 7 7 9 13 15 13 13 13 10 11 10 11 11 11 9 8 10 8
1 0 0 0 -0 -0 -0 -0 -0 -0 -0 -0 -0 -0 -0 -0 3 5 1 -3 -3 -3 5 7 8 7 9 8 8 11 14 13 11 12 12 11 11 11 11 11 12 11 10 10 8
0 0 0 0 -0 -0 -0 -0 -0 -0 -0 -0 -0 -0 -0 1 7 6 -1 -2 -3 -1 4 5 6 7 10 9 9 10 13 11 10 10 10 10 11 11 12 12 11 10 10 9 10
0 0 0 0 0 0 -0 -1 -1 -1 -0 -0 -0 -0 -0 3 12 5 -1 -2 -2 3 5 6 8 9 11 11 9 12 9 10 9 9 10 11 10 10 11 10 9 9 10 10 10
0 0 0 0 0 0 -0 -1 -1 -1 -0 0 0 -0 3 8 8 1 -1 -1 3 5 7 7 9 9 12 11 11 11 11 9 9 9 10 10 11 11 11 9 9 10 10 11 11
0 0 0 0 0 -0 -0 -0 -1 -0 1 0 0 0 6 10 3 1 2 4 5 6 7 7 8 8 10 11 12 11 11 10 10 10 11 11 12 12 10 11 10 10 12 12 11
-0 0 0 0 0 -0 -0 -1 -0 1 0 0 0 2 6 8 2 2 3 5 5 6 8 7 8 9 10 11 10 11 12 12 12 12 12 11 13 12 10 11 11 12 13 12 12
1 1 1 1 0 0 -0 -0 -0 1 0 1 0 4 10 6 5 3 5 6 6 6 7 7 7 9 10 10 11 13 14 16 12 12 12 12 15 12 11 12 12 14 14 13 12
1 1 1 1 1 1 0 -0 -0 1 0 0 4 7 10 5 7 7 7 7 7 7 8 7 8 11 11 14 16 15 18 16 13 11 12 14 15 12 10 12 14 14 14 13 13
1 1 1 1 1 1 0 1 2 2 2 2 4 10 9 10 8 7 8 7 9 9 10 10 12 14 15 16 19 17 17 16 15 13 13 14 14 13 12 12 14 15 14 14 14
1 1 1 1 1 -0 1 5 6 7 6 8 9 10 9 8 7 9 8 9 9 11 15 13 15 17 15 14 15 16 16 16 15 13 15 14 15 13 12 13 14 14 14 14 14
1 1 1 1 1 1 4 7 8 8 9 6 7 7 8 8 10 10 8 11 12 15 14 15 17 14 13 14 14 15 16 17 15 13 14 14 14 13 13 14 14 14 14 14 14
1 1 1 1 2 3 6 7 6 8 11 9 7 7 9 9 10 10 10 11 13 15 14 16 13 12 13 14 15 15 16 16 15 14 15 15 16 14 14 13 13 13 13 14 14
1 1 1 2 4 4 7 6 6 8 13 12 10 11 11 9 11 10 10 12 14 14 15 15 13 13 14 14 14 16 13 14 15 17 18 15 20 16 14 15 14 14 15 15 15
1 1 1 1 4 5 6 6 6 8 19 11 12 9 11 11 12 13 11 12 14 13 14 14 14 15 14 14 13 14 14 15 16 17 18 18 19 17 15 16 16 15 15 15 14
3 3 2 2 3 4 6 7 7 12 19 14 13 13 14 14 13 13 13 12 12 14 14 14 14 14 13 13 13 13 15 15 16 17 20 17 18 18 17 15 15 15 14 14 14
3 3 3 2 4 6 6 6 13 17 11 15 15 14 14 15 14 14 15 16 16 17 17 15 15 14 13 15 14 15 16 19 21 21 20 16 18 16 15 14 14 15 15 14 14
2 3 3 3 5 5 5 9 17 13 13 13 14 14 15 14 14 14 15 16 15 15 17 16 17 14 13 13 14 15 15 19 22 22 20 17 19 16 15 14 13 13 14 13 13
2 3 4 5 4 4 7 15 15 12 11 12 12 14 14 14 14 15 16 15 13 14 15 17 16 14 13 13 12 15 16 14 17 24 22 18 17 15 14 15 14 14 13 14 14
5 5 5 5 3 5 9 13 11 9 10 11 13 12 15 13 13 14 14 13 13 12 12 13 16 13 13 12 13 14 12 16 17 23 23 19 17 16 15 15 14 14 14 13 13
6 8 6 4 4 7 13 12 10 9 9 11 12 12 13 13 13 15 14 13 12 13 11 12 14 15 14 14 14 13 14 14 13 16 20 22 18 14 13 13 13 13 12 13 13
8 11 6 4 10 10 12 10 10 10 9 10 11 12 13 12 14 14 14 12 11 11 13 12 13 18 14 12 11 12 12 12 17 18 16 16 16 11 11 12 12 12 12 12 12
10 10 6 6 13 13 11 11 10 12 11 11 11 11 11 12 13 13 12 11 11 11 12 10 14 22 18 14 12 13 12 12 12 15 19 19 17 12 12 12 11 12 12 12 12
11 13 10 8 9 11 12 12 12 9 10 10 11 10 12 12 11 13 13 11 10 9 8 8 14 16 17 17 14 16 14 14 13 19 18 16 15 13 12 11 11 10 11 11 12
11 12 11 14 12 11 11 11 12 13 10 10 12 11 12 14 13 13 12 12 11 9 11 11 14 15 15 13 13 14 14 15 15 15 16 16 15 13 12 12 12 11 12 10 10
13 14 12 13 11 11 12 13 13 12 12 13 13 12 11 12 12 14 12 12 13 12 12 13 18 15 19 15 14 16 15 15 14 13 13 13 14 10 11 13 13 13 13 11 11
11 11 11 12 14 13 13 13 12 11 11 11 11 12 12 10 11 12 13 13 12 13 14 14 17 20 21 18 18 23 19 15 14 14 14 16 14 15 13 13 13 14 13 14 14